UAL7632 KSLC-KDEN

Flight info

Callsign UAL7632
Flight time N/A
Altitude 33000
Route KSLC/16L N0453F330 RUGGD3 PERTY DCT KAMPR LONGZ3 KDEN/34R
Aircraft B739/M-SDE2E3FGHIRWXY/LB1

Departure

Time N/A
Airport Salt Lake City International Airport (KSLC)

Arrival

Time 2026-05-05 03:40
Airport Denver International Airport (KDEN)
Time Latitude Longitude Altitude Speed Heading
2026-05-05 03:18 40.45838 -106.21021 29987 ft 478 kts 98°
2026-05-05 03:18 40.45448 -106.16752 29784 ft 465 kts 98°
2026-05-05 03:18 40.45068 -106.12569 29287 ft 459 kts 97°
2026-05-05 03:18 40.44705 -106.08413 28656 ft 457 kts 97°
2026-05-05 03:19 40.43992 -106.00175 27466 ft 451 kts 97°
2026-05-05 03:19 40.43636 -105.96104 26951 ft 447 kts 97°
2026-05-05 03:19 40.43278 -105.92060 26452 ft 443 kts 97°
2026-05-05 03:20 40.42836 -105.88077 25965 ft 439 kts 101°
2026-05-05 03:20 40.42235 -105.84169 25448 ft 436 kts 103°
2026-05-05 03:20 40.41579 -105.80299 24980 ft 432 kts 103°
2026-05-05 03:20 40.40928 -105.76463 24495 ft 429 kts 103°
2026-05-05 03:21 40.40298 -105.72648 24033 ft 426 kts 103°
2026-05-05 03:21 40.39690 -105.68858 23569 ft 423 kts 102°
2026-05-05 03:21 40.39093 -105.65096 23029 ft 420 kts 102°
2026-05-05 03:21 40.38501 -105.61366 22501 ft 416 kts 102°
2026-05-05 03:22 40.37910 -105.57666 22019 ft 413 kts 102°
2026-05-05 03:22 40.37324 -105.54002 21589 ft 407 kts 102°
2026-05-05 03:22 40.36749 -105.50421 21444 ft 397 kts 102°
2026-05-05 03:22 40.36180 -105.46877 21297 ft 398 kts 102°
2026-05-05 03:23 40.35612 -105.43351 21153 ft 391 kts 102°
2026-05-05 03:23 40.35057 -105.39913 21012 ft 380 kts 102°
2026-05-05 03:23 40.34358 -105.36643 20832 ft 368 kts 116°
2026-05-05 03:23 40.33003 -105.33855 20516 ft 360 kts 129°
2026-05-05 03:24 40.31474 -105.31282 20174 ft 356 kts 130°
2026-05-05 03:24 40.29933 -105.28745 19855 ft 355 kts 130°
2026-05-05 03:24 40.28400 -105.26217 19513 ft 355 kts 130°
2026-05-05 03:24 40.26872 -105.23676 19170 ft 355 kts 130°
2026-05-05 03:25 40.25350 -105.21128 18830 ft 355 kts 129°
2026-05-05 03:25 40.23854 -105.18612 18492 ft 354 kts 129°
2026-05-05 03:25 40.22343 -105.16068 18114 ft 354 kts 129°
2026-05-05 03:25 40.20838 -105.13531 17722 ft 352 kts 129°
2026-05-05 03:26 40.19345 -105.11018 17391 ft 347 kts 129°
2026-05-05 03:26 40.17870 -105.08539 17060 ft 343 kts 129°
2026-05-05 03:26 40.16412 -105.06089 16746 ft 340 kts 129°
2026-05-05 03:26 40.14965 -105.03655 16457 ft 338 kts 129°
2026-05-05 03:27 40.13448 -105.01313 16159 ft 338 kts 136°
2026-05-05 03:27 40.11780 -104.99147 15867 ft 338 kts 139°
2026-05-05 03:27 40.10081 -104.97037 15575 ft 337 kts 139°
2026-05-05 03:27 40.08390 -104.94928 15283 ft 335 kts 139°
2026-05-05 03:28 40.06729 -104.92819 14991 ft 333 kts 138°
2026-05-05 03:28 40.05082 -104.90710 14700 ft 330 kts 138°
2026-05-05 03:28 40.03453 -104.88615 14413 ft 328 kts 138°
2026-05-05 03:28 40.01832 -104.86529 14132 ft 327 kts 138°
2026-05-05 03:29 40.00216 -104.84453 13837 ft 326 kts 138°
2026-05-05 03:29 39.98598 -104.82388 13525 ft 324 kts 141°
2026-05-05 03:29 39.96712 -104.80880 13205 ft 315 kts 164°
2026-05-05 03:29 39.94604 -104.80406 12944 ft 304 kts 183°
2026-05-05 03:30 39.92502 -104.80445 12700 ft 300 kts 185°
2026-05-05 03:30 39.90425 -104.80530 12419 ft 298 kts 185°
2026-05-05 03:30 39.88364 -104.80614 12177 ft 295 kts 184°
2026-05-05 03:30 39.86329 -104.80685 11921 ft 290 kts 184°
2026-05-05 03:31 39.84334 -104.80746 11666 ft 285 kts 183°
2026-05-05 03:31 39.82368 -104.80800 11408 ft 278 kts 183°
2026-05-05 03:31 39.80463 -104.80850 11159 ft 269 kts 183°
2026-05-05 03:31 39.78621 -104.80900 10931 ft 261 kts 183°
2026-05-05 03:32 39.76832 -104.80975 10692 ft 253 kts 184°
2026-05-05 03:32 39.75093 -104.81061 10494 ft 247 kts 183°
2026-05-05 03:32 39.73394 -104.81132 10299 ft 243 kts 182°
2026-05-05 03:32 39.71699 -104.81175 10152 ft 244 kts 181°
2026-05-05 03:33 39.69988 -104.81199 9992 ft 248 kts 180°
2026-05-05 03:33 39.68260 -104.81173 9878 ft 249 kts 173°
2026-05-05 03:33 39.66600 -104.80607 9779 ft 246 kts 159°
2026-05-05 03:33 39.65006 -104.79795 9665 ft 245 kts 158°
2026-05-05 03:34 39.63503 -104.78790 9573 ft 243 kts 140°
2026-05-05 03:34 39.62427 -104.77180 9554 ft 232 kts 117°
2026-05-05 03:34 39.61970 -104.75254 9467 ft 219 kts 94°
2026-05-05 03:34 39.62327 -104.73458 9403 ft 202 kts 52°
2026-05-05 03:35 39.63325 -104.72150 9232 ft 209 kts 39°
2026-05-05 03:35 39.64475 -104.70998 8917 ft 208 kts 37°
2026-05-05 03:35 39.65635 -104.69869 8501 ft 207 kts 36°
2026-05-05 03:35 39.66902 -104.69014 8094 ft 205 kts 19°
2026-05-05 03:36 39.68194 -104.68262 7704 ft 203 kts 31°
2026-05-05 03:36 39.69395 -104.67323 7307 ft 200 kts 25°
2026-05-05 03:36 39.70716 -104.67224 7032 ft 190 kts 337°
2026-05-05 03:36 39.71918 -104.67945 7036 ft 193 kts 344°
2026-05-05 03:37 39.73215 -104.68337 7001 ft 190 kts 352°
2026-05-05 03:37 39.74508 -104.68529 7028 ft 179 kts 356°
2026-05-05 03:37 39.75708 -104.68621 6987 ft 167 kts 359°
2026-05-05 03:37 39.76862 -104.68664 6975 ft 165 kts
2026-05-05 03:38 39.78009 -104.68694 6997 ft 165 kts
2026-05-05 03:38 39.79167 -104.68748 6804 ft 165 kts 358°
2026-05-05 03:38 39.80274 -104.68781 6618 ft 153 kts
2026-05-05 03:38 39.81323 -104.68778 6385 ft 150 kts
2026-05-05 03:39 39.82366 -104.68765 6182 ft 151 kts
2026-05-05 03:39 39.83411 -104.68750 5976 ft 152 kts
2026-05-05 03:39 39.84478 -104.68741 5773 ft 150 kts
2026-05-05 03:39 39.85502 -104.68727 5583 ft 147 kts
2026-05-05 03:40 39.86537 -104.68718 5381 ft 146 kts
2026-05-05 03:40 39.87437 -104.68709 5360 ft 95 kts
2026-05-05 03:40 39.87894 -104.68704 5363 ft 56 kts
2026-05-05 03:40 39.88257 -104.68697 5359 ft 49 kts 359°
2026-05-05 03:41 39.88489 -104.68694 5355 ft 26 kts
2026-05-05 03:41 39.88665 -104.68687 5355 ft 25 kts
2026-05-05 03:41 39.88799 -104.68634 5357 ft 17 kts 22°
2026-05-05 03:41 39.88889 -104.68577 5357 ft 9 kts 44°
2026-05-05 03:42 39.88884 -104.68502 5358 ft 9 kts 130°
2026-05-05 03:42 39.88827 -104.68481 5357 ft 9 kts 179°
2026-05-05 03:42 39.88764 -104.68480 5357 ft 9 kts 179°
2026-05-05 03:42 39.88701 -104.68479 5356 ft 9 kts 180°
2026-05-05 03:43 39.88639 -104.68479 5357 ft 9 kts 180°
2026-05-05 03:43 39.88579 -104.68480 5356 ft 9 kts 180°
2026-05-05 03:43 39.88511 -104.68480 5356 ft 11 kts 180°
2026-05-05 03:43 39.88432 -104.68480 5356 ft 11 kts 180°
2026-05-05 03:44 39.88355 -104.68483 5358 ft 12 kts 181°
2026-05-05 03:44 39.88254 -104.68485 5360 ft 17 kts 181°
2026-05-05 03:44 39.88123 -104.68486 5361 ft 20 kts 180°
2026-05-05 03:44 39.87988 -104.68486 5363 ft 19 kts 181°
2026-05-05 03:45 39.87858 -104.68489 5364 ft 18 kts 180°
2026-05-05 03:45 39.87732 -104.68491 5361 ft 18 kts 181°
2026-05-05 03:45 39.87610 -104.68494 5362 ft 17 kts 181°
2026-05-05 03:45 39.87493 -104.68498 5361 ft 17 kts 180°
2026-05-05 03:46 39.87378 -104.68495 5359 ft 17 kts 179°
2026-05-05 03:46 39.87258 -104.68494 5357 ft 17 kts 181°
2026-05-05 03:46 39.87137 -104.68496 5358 ft 18 kts 180°
2026-05-05 03:46 39.87009 -104.68496 5359 ft 18 kts 181°
2026-05-05 03:47 39.86883 -104.68500 5360 ft 18 kts 181°
2026-05-05 03:47 39.86764 -104.68502 5362 ft 17 kts 181°
2026-05-05 03:47 39.86648 -104.68506 5363 ft 16 kts 180°
2026-05-05 03:47 39.86547 -104.68471 5363 ft 16 kts 117°
2026-05-05 03:48 39.86478 -104.68385 5365 ft 15 kts 179°
2026-05-05 03:48 39.86376 -104.68384 5364 ft 14 kts 180°
2026-05-05 03:48 39.86278 -104.68385 5364 ft 14 kts 180°
2026-05-05 03:48 39.86185 -104.68386 5364 ft 13 kts 180°
2026-05-05 03:49 39.86095 -104.68386 5364 ft 13 kts 180°
2026-05-05 03:49 39.86035 -104.68326 5367 ft 12 kts 97°
2026-05-05 03:49 39.86024 -104.68217 5369 ft 12 kts 128°
2026-05-05 03:49 39.85943 -104.68206 5369 ft 12 kts 184°
2026-05-05 03:50 39.85862 -104.68209 5371 ft 12 kts 181°
2026-05-05 03:50 39.85778 -104.68210 5372 ft 12 kts 179°
2026-05-05 03:50 39.85701 -104.68186 5375 ft 12 kts 127°
2026-05-05 03:50 39.85695 -104.68083 5376 ft 11 kts 86°
2026-05-05 03:51 39.85707 -104.67983 5374 ft 11 kts 81°
2026-05-05 03:51 39.85713 -104.67885 5377 ft 11 kts 91°
2026-05-05 03:51 39.85713 -104.67789 5378 ft 10 kts 91°
2026-05-05 03:51 39.85720 -104.67698 5376 ft 10 kts 64°
2026-05-05 03:52 39.85757 -104.67631 5374 ft 8 kts 22°
2026-05-05 03:52 39.85803 -104.67627 5379 ft 0 kts